Time,TemperatureF,DewpointF,PressureIn,WindDirection,WindDirectionDegrees,WindSpeedMPH,WindSpeedGustMPH,Humidity,HourlyPrecipIn,Conditions,Clouds,dailyrainin,SolarRadiationWatts/m^2,SoftwareType,DateUTC
2013-09-15 00:02:00,66.0,45.0,-100.00,NNW,328,17.0,18.0,46,0.00,,,-99.99,0.000000,,2013-09-15 07:02:00,
2013-09-15 00:22:00,66.0,45.0,-100.00,NNW,328,17.0,18.0,46,0.00,,,-99.99,0.000000,,2013-09-15 07:22:00,
2013-09-15 00:52:00,66.0,48.0,-100.00,NW,325,20.0,20.0,52,0.00,,,-99.99,0.000000,,2013-09-15 07:52:00,
2013-09-15 01:02:00,66.0,48.0,-100.00,NW,325,20.0,20.0,52,0.00,,,-99.99,0.000000,,2013-09-15 08:02:00,
2013-09-15 01:21:00,66.0,48.0,-100.00,NW,325,20.0,20.0,52,0.00,,,-99.99,0.000000,,2013-09-15 08:21:00,
2013-09-15 01:52:00,65.0,49.0,-100.00,NW,325,17.0,22.0,56,0.00,,,0.00,0.000000,,2013-09-15 08:52:00,
2013-09-15 02:02:00,65.0,49.0,-100.00,NW,325,17.0,22.0,56,0.00,,,0.00,0.000000,,2013-09-15 09:02:00,
2013-09-15 02:21:00,65.0,49.0,-100.00,NW,325,17.0,22.0,56,0.00,,,0.00,0.000000,,2013-09-15 09:21:00,
2013-09-15 02:53:00,64.0,47.0,-100.00,NW,325,17.0,21.0,55,-99.99,,,0.00,0.000000,,2013-09-15 09:53:00,
2013-09-15 03:03:00,64.0,47.0,-100.00,NW,325,17.0,21.0,55,-99.99,,,0.00,0.000000,,2013-09-15 10:03:00,
2013-09-15 03:23:00,64.0,47.0,-100.00,NW,325,17.0,21.0,55,-99.99,,,0.00,0.000000,,2013-09-15 10:23:00,
2013-09-15 03:53:00,64.0,47.0,-100.00,NW,322,17.0,20.0,54,0.00,,,0.00,0.000000,,2013-09-15 10:53:00,
2013-09-15 04:02:00,64.0,47.0,-100.00,NW,322,17.0,20.0,54,0.00,,,0.00,0.000000,,2013-09-15 11:02:00,
2013-09-15 04:52:00,64.0,47.0,-100.00,NW,323,16.0,20.0,55,0.00,,,0.00,0.000000,,2013-09-15 11:52:00,
2013-09-15 05:02:00,64.0,47.0,-100.00,NW,323,16.0,20.0,55,0.00,,,0.00,0.000000,,2013-09-15 12:02:00,
2013-09-15 05:21:00,64.0,47.0,-100.00,NW,323,16.0,20.0,55,0.00,,,0.00,0.000000,,2013-09-15 12:21:00,
2013-09-15 05:52:00,64.0,39.0,-100.00,NW,322,16.0,19.0,40,0.00,,,0.00,0.000000,,2013-09-15 12:52:00,
2013-09-15 06:01:00,64.0,39.0,-100.00,NW,322,16.0,19.0,40,0.00,,,0.00,0.000000,,2013-09-15 13:01:00,
2013-09-15 06:21:00,64.0,39.0,-100.00,NW,322,16.0,19.0,40,0.00,,,0.00,0.000000,,2013-09-15 13:21:00,
2013-09-15 06:53:00,65.0,40.0,-100.00,NW,317,15.0,18.0,40,0.00,,,0.00,0.000000,,2013-09-15 13:53:00,
2013-09-15 07:02:00,65.0,40.0,-100.00,NW,317,15.0,18.0,40,0.00,,,0.00,0.000000,,2013-09-15 14:02:00,
2013-09-15 12:21:00,75.0,27.0,-100.00,WSW,254,7.0,13.0,17,0.00,,,0.00,783.000000,,2013-09-15 19:21:00,
2013-09-15 12:52:00,81.0,32.0,-100.00,SW,224,9.0,14.0,17,0.00,,,0.00,996.000000,,2013-09-15 19:52:00,
2013-09-15 13:02:00,81.0,32.0,-100.00,SW,224,9.0,14.0,17,0.00,,,0.00,996.000000,,2013-09-15 20:02:00,
2013-09-15 13:11:00,81.0,32.0,-100.00,SW,224,9.0,14.0,17,0.00,,,0.00,996.000000,,2013-09-15 20:11:00,
2013-09-15 13:22:00,81.0,32.0,-100.00,SW,224,9.0,14.0,17,0.00,,,0.00,996.000000,,2013-09-15 20:22:00,
2013-09-15 13:53:00,80.0,27.0,-100.00,SSW,208,10.0,20.0,14,0.00,,,0.00,1095.000000,,2013-09-15 20:53:00,
2013-09-15 14:02:00,80.0,27.0,-100.00,SSW,208,10.0,20.0,14,0.00,,,0.00,1095.000000,,2013-09-15 21:02:00,
2013-09-15 14:11:00,80.0,27.0,-100.00,SSW,208,10.0,20.0,14,0.00,,,0.00,1095.000000,,2013-09-15 21:11:00,
2013-09-15 14:21:00,80.0,27.0,-100.00,SSW,208,10.0,20.0,14,0.00,,,0.00,1095.000000,,2013-09-15 21:21:00,
2013-09-15 14:54:00,84.0,28.0,-100.00,SSW,211,9.0,23.0,13,0.00,,,-99.99,1124.000000,,2013-09-15 21:54:00,
2013-09-15 15:04:00,84.0,28.0,-100.00,SSW,211,9.0,23.0,13,0.00,,,-99.99,1124.000000,,2013-09-15 22:04:00,
2013-09-15 15:14:00,84.0,28.0,-100.00,SSW,211,9.0,23.0,13,0.00,,,-99.99,1124.000000,,2013-09-15 22:14:00,
2013-09-15 15:53:00,83.0,32.0,-100.00,West,278,9.0,23.0,16,0.00,,,0.00,1075.000000,,2013-09-15 22:53:00,
2013-09-15 16:02:00,83.0,32.0,-100.00,West,278,9.0,23.0,16,0.00,,,0.00,1075.000000,,2013-09-15 23:02:00,
2013-09-15 16:12:00,83.0,32.0,-100.00,West,278,9.0,23.0,16,0.00,,,0.00,1075.000000,,2013-09-15 23:12:00,
2013-09-15 16:22:00,83.0,32.0,-100.00,West,278,9.0,23.0,16,0.00,,,0.00,1075.000000,,2013-09-15 23:22:00,
2013-09-15 16:53:00,82.0,33.0,-100.00,SSE,154,14.0,21.0,17,0.00,,,0.00,934.000000,,2013-09-15 23:53:00,
2013-09-15 17:01:00,82.0,33.0,-100.00,SSE,154,14.0,21.0,17,0.00,,,0.00,934.000000,,2013-09-16 00:01:00,
2013-09-15 17:11:00,82.0,33.0,-100.00,SSE,154,14.0,21.0,17,0.00,,,0.00,934.000000,,2013-09-16 00:11:00,
2013-09-15 17:21:00,82.0,33.0,-100.00,SSE,154,14.0,21.0,17,0.00,,,0.00,934.000000,,2013-09-16 00:21:00,
2013-09-15 17:52:00,81.0,31.0,-100.00,WSW,242,12.0,28.0,16,0.00,,,0.00,728.000000,,2013-09-16 00:52:00,
2013-09-15 18:02:00,81.0,31.0,-100.00,WSW,242,12.0,28.0,16,0.00,,,0.00,728.000000,,2013-09-16 01:02:00,
2013-09-15 18:12:00,81.0,31.0,-100.00,WSW,242,12.0,28.0,16,0.00,,,0.00,728.000000,,2013-09-16 01:12:00,
2013-09-15 18:21:00,81.0,31.0,-100.00,WSW,242,12.0,28.0,16,0.00,,,0.00,728.000000,,2013-09-16 01:21:00,
2013-09-15 18:52:00,81.0,33.0,-100.00,West,261,18.0,21.0,18,0.00,,,0.00,479.000000,,2013-09-16 01:52:00,
2013-09-15 19:02:00,81.0,33.0,-100.00,West,261,18.0,21.0,18,0.00,,,0.00,479.000000,,2013-09-16 02:02:00,
2013-09-15 19:12:00,81.0,33.0,-100.00,West,261,18.0,21.0,18,0.00,,,0.00,479.000000,,2013-09-16 02:12:00,
2013-09-15 19:52:00,75.0,34.0,-100.00,West,273,10.0,26.0,22,-99.99,,,-99.99,196.000000,,2013-09-16 02:52:00,
2013-09-15 20:02:00,75.0,34.0,-100.00,West,273,10.0,26.0,22,-99.99,,,-99.99,196.000000,,2013-09-16 03:02:00,
2013-09-15 20:11:00,75.0,34.0,-100.00,West,273,10.0,26.0,22,-99.99,,,-99.99,196.000000,,2013-09-16 03:11:00,
2013-09-15 20:22:00,75.0,34.0,-100.00,West,273,10.0,26.0,22,-99.99,,,-99.99,196.000000,,2013-09-16 03:22:00,
2013-09-15 20:55:00,72.0,35.0,-100.00,WNW,285,11.0,23.0,26,-99.99,,,0.00,18.000000,,2013-09-16 03:55:00,
2013-09-15 21:05:00,72.0,35.0,-100.00,WNW,285,11.0,23.0,26,-99.99,,,0.00,18.000000,,2013-09-16 04:05:00,
2013-09-15 21:13:00,72.0,35.0,-100.00,WNW,285,11.0,23.0,26,-99.99,,,0.00,18.000000,,2013-09-16 04:13:00,
2013-09-15 21:54:00,69.0,32.0,-100.00,West,281,12.0,19.0,25,-99.99,,,0.00,0.000000,,2013-09-16 04:54:00,
2013-09-15 22:04:00,69.0,32.0,-100.00,West,281,12.0,19.0,25,-99.99,,,0.00,0.000000,,2013-09-16 05:04:00,
2013-09-15 22:12:00,69.0,32.0,-100.00,West,281,12.0,19.0,25,-99.99,,,0.00,0.000000,,2013-09-16 05:12:00,
2013-09-15 23:22:00,70.0,34.0,-100.00,WNW,301,11.0,19.0,26,-99.99,,,0.00,0.000000,,2013-09-16 06:22:00,